DW7259 Weather Reports


Display with metric or nautical units.
time (UTC)temp
F
wind
direction
speed
MPH
gust
MPH
rain 1hr
in
rain 24hr
in
rain mn
in
humidity
%
barometer
mb
20260508124559 45 172 0.0 2.0 0.00 0.00 0.00 55 1010.0
20260508123052 45 172 0.0 3.0 0.00 0.00 0.00 53 1010.0
20260508121551 45 172 0.0 2.0 0.00 0.00 0.00 56 1010.0
20260508120047 45 172 0.0 0.0 0.00 0.00 0.00 57 1010.0
20260508114544 46 172 0.0 0.0 0.00 0.00 0.00 55 1009.9
20260508113050 47 172 0.0 0.0 0.00 0.00 0.00 53 1009.6
20260508111538 47 172 0.0 0.0 0.00 0.00 0.00 52 1009.8
20260508110035 48 172 0.0 4.0 0.00 0.00 0.00 50 1009.6
20260508104536 49 172 0.0 3.0 0.00 0.00 0.00 50 1009.6
20260508103036 48 172 0.0 2.0 0.00 0.00 0.00 52 1009.5
20260508101532 49 172 0.0 0.0 0.00 0.00 0.00 52 1009.4
20260508100029 49 172 0.0 0.0 0.00 0.00 0.00 50 1009.4
20260508094526 50 172 0.0 0.0 0.00 0.00 0.00 49 1009.4
20260508093024 50 172 0.0 0.0 0.00 0.00 0.00 48 1009.2
20260508091533 50 172 0.0 1.0 0.00 0.00 0.00 45 1009.2
20260508090030 51 172 0.0 1.0 0.00 0.00 0.00 42 1009.0
20260508084518 51 172 0.0 0.0 0.00 0.00 0.00 40 1009.0
20260508083014 52 172 0.0 1.0 0.00 0.00 0.00 38 1009.2
20260508081513 52 172 0.0 1.0 0.00 0.00 0.00 37 1009.4
20260508080013 53 172 0.0 2.0 0.00 0.00 0.00 36 1009.3
20260508074516 53 172 0.0 3.0 0.00 0.00 0.00 36 1009.3
20260508073008 53 172 1.0 4.0 0.00 0.00 0.00 38 1009.4
20260508071511 54 172 1.0 2.0 0.00 0.00 0.00 39 1009.3
20260508070002 54 172 0.0 3.0 0.00 0.00 0.00 43 1009.3
20260508064502 55 172 0.0 1.0 0.00 0.00 0.00 40 1009.2
20260508063001 56 172 0.0 1.0 0.00 0.00 0.00 40 1009.2
20260508061604 57 172 0.0 3.0 0.00 0.00 0.00 43 1009.2
20260508060109 58 172 0.0 2.0 0.00 0.00 0.00 40 1009.1
20260508054559 59 172 0.0 2.0 0.00 0.00 0.00 37 1009.2
20260508053059 60 172 0.0 1.0 0.00 0.00 0.00 32 1009.0
20260508051558 62 172 0.0 3.0 0.00 0.00 0.00 29 1008.9
20260508050058 64 172 0.0 6.0 0.00 0.00 0.00 26 1008.8
20260508044603 64 172 0.0 6.0 0.00 0.00 0.00 22 1008.8
20260508043107 64 172 0.0 6.0 0.00 0.00 0.00 25 1008.3
20260508041555 64 172 0.0 3.0 0.00 0.00 0.00 29 1008.1
20260508040054 64 172 0.0 5.0 0.00 0.00 0.00 32 1007.9
20260508034554 64 172 0.0 3.0 0.00 0.00 0.00 32 1007.7
20260508033052 65 172 0.0 2.0 0.00 0.00 0.00 38 1007.5
20260508031552 66 172 0.0 4.0 0.00 0.00 0.00 39 1007.5
20260508030052 67 172 0.0 5.0 0.00 0.00 0.00 38 1007.4
20260508024554 68 172 0.0 3.0 0.00 0.00 0.00 39 1007.3
20260508023050 69 172 0.0 4.0 0.00 0.00 0.00 39 1007.2
20260508021552 70 172 1.0 4.0 0.00 0.00 0.00 36 1007.0
20260508020053 71 172 0.0 4.0 0.00 0.00 0.00 35 1007.0
20260508014549 72 172 0.0 3.0 0.00 0.00 0.00 34 1006.9
20260508013048 72 172 0.0 4.0 0.00 0.00 0.00 32 1006.9
20260508011548 73 172 0.0 10.0 0.00 0.00 0.00 31 1006.9
20260508010047 74 172 1.0 7.0 0.00 0.00 0.00 28 1006.9
20260508004547 74 172 0.0 3.0 0.00 0.00 0.00 27 1006.8
20260508003046 75 172 1.0 8.0 0.00 0.00 0.00 26 1006.7
20260508001546 75 172 0.0 7.0 0.00 0.00 0.00 27 1006.6
20260508000045 76 172 1.0 6.0 0.00 0.00 0.00 24 1006.5
20260507234545 76 172 0.0 5.0 0.00 0.00 0.00 23 1006.5
20260507233044 77 172 1.0 8.0 0.00 0.00 0.00 22 1006.6
20260507231551 78 185 2.0 8.0 0.00 0.00 0.00 22 1006.7
20260507230047 78 185 1.0 6.0 0.00 0.00 0.00 21 1006.6
20260507224542 79 185 1.0 6.0 0.00 0.00 0.00 22 1006.5
20260507223040 79 186 2.0 6.0 0.00 0.00 0.00 21 1006.7
20260507221539 80 186 1.0 8.0 0.00 0.00 0.00 21 1006.9
20260507220038 80 186 2.0 10.0 0.00 0.00 0.00 20 1007.0
20260507214550 80 187 1.0 5.0 0.00 0.00 0.00 21 1007.1
20260507213035 82 187 0.0 10.0 0.00 0.00 0.00 22 1007.3
20260507211534 81 189 2.0 9.0 0.00 0.00 0.00 20 1007.5
20260507210047 81 189 0.0 5.0 0.00 0.00 0.00 22 1007.6
20260507204529 80 189 1.0 10.0 0.00 0.00 0.00 20 1007.8
20260507203027 79 189 1.0 10.0 0.00 0.00 0.00 20 1007.9
20260507201525 78 189 1.0 14.0 0.00 0.00 0.00 20 1007.8
20260507200027 78 203 2.0 9.0 0.00 0.00 0.00 19 1007.9
20260507194521 78 203 1.0 8.0 0.00 0.00 0.00 21 1008.1
20260507193018 78 203 0.0 4.0 0.00 0.00 0.00 23 1008.1
20260507191515 78 203 0.0 6.0 0.00 0.00 0.00 22 1008.3
20260507190011 77 203 0.0 4.0 0.00 0.00 0.00 26 1008.6
20260507184515 76 203 1.0 5.0 0.00 0.00 0.00 26 1008.9
20260507183004 74 212 1.0 11.0 0.00 0.00 0.00 27 1009.0
20260507181600 74 229 2.0 10.0 0.00 0.00 0.00 25 1009.1
20260507174553 73 256 1.0 7.0 0.00 0.00 0.00 27 1009.2
20260507173048 71 211 0.0 7.0 0.00 0.00 0.00 41 1009.3
20260507171549 70 211 1.0 5.0 0.00 0.00 0.00 40 1009.4
20260507170040 68 211 2.0 7.0 0.00 0.00 0.00 45 1009.6
20260507164535 67 211 3.0 7.0 0.00 0.00 0.00 45 1009.6
20260507163031 67 211 0.0 4.0 0.00 0.00 0.00 46 1009.7
20260507161529 65 211 1.0 4.0 0.00 0.00 0.00 52 1009.9
20260507160023 64 211 0.0 3.0 0.00 0.00 0.00 53 1010.0
20260507154528 62 211 0.0 4.0 0.00 0.00 0.00 58 1010.1
20260507153028 61 211 1.0 4.0 0.00 0.00 0.00 60 1010.1
20260507151509 59 211 0.0 4.0 0.00 0.00 0.00 60 1010.1
20260507150006 57 211 0.0 2.0 0.00 0.00 0.00 63 1010.1
20260507144506 56 211 0.0 1.0 0.00 0.00 0.00 65 1010.1
20260507143004 54 211 0.0 0.0 0.00 0.00 0.00 70 1010.2
20260507141502 52 211 0.0 1.0 0.00 0.00 0.00 73 1010.1
20260507140004 51 211 0.0 0.0 0.00 0.00 0.00 75 1010.1
20260507134600 51 211 0.0 0.0 0.00 0.00 0.00 76 1010.0
20260507133106 50 211 0.0 0.0 0.00 0.00 0.00 75 1009.8
20260507131611 50 211 0.0 0.0 0.00 0.00 0.00 74 1009.8
20260507130053 50 211 0.0 0.0 0.00 0.00 0.00 73 1009.8